Winner, SD

7:10 AM CDT on April 26, 2017 (GMT -0500)
Winner

Weather History for KICR - February, 2013

Change the Weather History Date:

Wednesday, February 20, 2013

  Actual Average Record
Temperature  
Mean Temperature 16 °F 28 °F  
Max Temperature 26 °F 39 °F 64 °F (2017)
Min Temperature 5 °F 18 °F 5 °F (2011)
Degree Days  
Heating Degree Days 49 37  
Month to date heating degree days 687 773  
Since 1 July heating degree days 4327 4728  
Cooling Degree Days 0 0  
Month to date cooling degree days 0 0  
Year to date cooling degree days 0 0  
Moisture  
Dew Point 7 °F    
Average Humidity 61    
Maximum Humidity 84    
Minimum Humidity 38    
Precipitation  
Precipitation 0.00 in 0.02 in 0.16 in (2011)
Month to date precipitation T 0.37  
Year to date precipitation T 0.62  
Sea Level Pressure  
Sea Level Pressure 30.22 in    
Wind  
Wind Speed 17 mph (SE)    
Max Wind Speed 24 mph    
Max Gust Speed 29 mph    
Visibility 8 miles    
Events Snow    
T = Trace of Precipitation, MM = Missing Value Source: NWS Daily Summary

Daily Weather History Graph

Daily Weather History Graph

Search for Another Location

Airport or City:

Trip Planner

Search our weather history database for the weather conditions in past years. The results will help you decide how hot, cold, wet, or windy it might be!

Date:

Astronomy

Feb. 20, 2013 Rise Set
Actual Time 7:29 AM CST 6:17 PM CST
Civil Twilight 7:00 AM CST 6:46 PM CST
Nautical Twilight 6:27 AM CST 7:19 PM CST
Astronomical Twilight 5:54 AM CST 7:52 PM CST
Moon 1:34 PM CST (2/20) 3:56 AM CST (2/20)
Length of Visible Light 11h 45m
Length of Day
10h 47m
Waxing Gibbous, 76% of the Moon is Illuminated
Feb 20
Waxing Gibbous
Feb 25
Full
Mar 4
Last Quarter
Mar 11
New
Mar 19
First Quarter

Hourly Weather History & Observations

Time (CST) Temp. Windchill Dew Point Humidity Pressure Visibility Wind Dir Wind Speed Gust Speed Precip Events Conditions
12:53 AM 6.1 °F -9.5 °F -0.0 °F 76% 30.39 in 10.0 mi ESE 11.5 mph - N/A   Clear
1:53 AM 5.0 °F -10.8 °F -0.0 °F 80% 30.37 in 10.0 mi ESE 11.5 mph - N/A   Clear
2:53 AM 5.0 °F -12.3 °F -0.9 °F 76% 30.35 in 10.0 mi ESE 13.8 mph - N/A   Clear
3:53 AM 6.1 °F -11.6 °F -0.9 °F 73% 30.32 in 10.0 mi ESE 15.0 mph - N/A   Overcast
4:53 AM 7.0 °F -11.0 °F -0.9 °F 70% 30.30 in 10.0 mi ESE 16.1 mph - N/A   Overcast
5:53 AM 7.0 °F -10.4 °F -0.0 °F 73% 30.30 in 10.0 mi ESE 15.0 mph - N/A   Scattered Clouds
7:53 AM 8.1 °F -7.0 °F 1.0 °F 73% 30.30 in 10.0 mi ESE 11.5 mph - N/A   Clear
8:53 AM 10.0 °F -5.9 °F 1.9 °F 70% 30.30 in 10.0 mi ESE 13.8 mph - N/A   Overcast
9:53 AM 12.9 °F -4.9 °F 1.9 °F 62% 30.29 in 10.0 mi SE 19.6 mph - N/A   Scattered Clouds
10:53 AM 16.0 °F -1.7 °F 3.0 °F 57% 30.27 in 10.0 mi SE 21.9 mph - N/A   Overcast
11:53 AM 16.0 °F -0.9 °F 3.0 °F 57% 30.27 in 10.0 mi SE 19.6 mph - N/A   Overcast
1:53 PM 23.0 °F 8.3 °F 3.0 °F 42% 30.21 in 10.0 mi SE 19.6 mph 27.6 mph N/A   Overcast
3:53 PM 26.1 °F 12.7 °F 5.0 °F 41% 30.17 in 10.0 mi SE 18.4 mph 25.3 mph N/A   Overcast
4:53 PM 25.0 °F 11.3 °F 6.1 °F 45% 30.16 in 10.0 mi SE 18.4 mph - N/A   Overcast
5:53 PM 25.0 °F 12.6 °F 7.0 °F 46% 30.16 in 10.0 mi ESE 15.0 mph - N/A   Overcast
6:53 PM 23.0 °F 8.3 °F 9.0 °F 55% 30.17 in 10.0 mi SE 19.6 mph 26.5 mph 0.00 in Snow Light Snow
7:53 PM 21.0 °F 5.4 °F 14.0 °F 74% 30.17 in 5.0 mi SE 20.7 mph - 0.00 in Snow Light Snow
8:53 PM 21.0 °F 6.6 °F 15.1 °F 78% 30.17 in 5.0 mi SE 17.3 mph - 0.00 in Snow Light Snow
9:53 PM 19.9 °F 5.7 °F 15.1 °F 81% 30.17 in 3.0 mi ESE 16.1 mph - 0.00 in Snow Light Snow
10:34 PM 19.4 °F 5.0 °F 15.8 °F 86% 30.08 in 2.5 mi SE 16.1 mph - 0.00 in Snow Light Snow
10:37 PM 19.4 °F 4.5 °F 15.8 °F 86% 30.08 in 1.8 mi SE 17.3 mph - 0.00 in Snow Light Snow
10:53 PM 19.9 °F 4.8 °F 15.1 °F 81% 30.18 in 2.0 mi SE 18.4 mph - 0.00 in Snow Light Snow
11:04 PM 19.4 °F 5.5 °F 14.0 °F 80% 30.08 in 2.5 mi SE 15.0 mph - 0.00 in Snow Light Snow
11:17 PM 19.4 °F 5.5 °F 15.8 °F 86% 30.09 in 1.8 mi SE 15.0 mph - 0.00 in Snow Light Snow